Regional Weather Roundup
Issued by NWS Upton, NY

Current Version | Previous Version | Graphics & Text | Print | Product List | Glossary Off
Versions: 1 2 3 4 5 6 7 8 9 10 11 12 13 14 15 16 17 18 19 20 21 22 23 24 25 26 27 28 29 30 31 32 33 34 35 36 37 38 39 40 41 42 43 44 45 46 47 48 49 50

134
ASUS41 KOKX 051508
RWROKX

REGIONAL WEATHER ROUNDUP
NATIONAL WEATHER SERVICE NEW YORK NY
1000 AM EST MON DEC 05 2016

NOTE: "FAIR" INDICATES FEW OR NO CLOUDS BELOW 12,000 FEET WITH NO
SIGNIFICANT WEATHER AND/OR OBSTRUCTIONS TO VISIBILITY.

NYZ071-072-176-178-NJZ106-104-051600-
NEW YORK CITY METRO AREA

CITY           SKY/WX    TMP DP  RH WIND       PRES   REMARKS
Central Park   CLOUDY    43  38  82 MISG      30.02S
Wall St Helipt CLOUDY    43  40  89 W13       30.03R
Bronx Bot Gard   N/A     43  37  81 SW14      30.01
LaGuardia APRT CLOUDY    45  39  79 SW14G23   30.00R
Kennedy INTL   PTSUNNY   45  40  82 SW15      30.02R
Breezy Point     N/A     43 N/A N/A W13G20      N/A
Newark/Liberty CLOUDY    43  40  89 SW12      30.02R
Teterboro      CLOUDY    43  38  82 SW12      30.00R FOG
$$

NYZ177-179-078>081-051600-
LONG ISLAND NEW YORK

CITY           SKY/WX    TMP DP  RH WIND       PRES   REMARKS
Jones Beach      N/A     45 N/A N/A W15G22      N/A
Matinecock PT    N/A     41 N/A N/A SW14        N/A
Farmingdale    CLOUDY    44  41  89 W10       30.01R
MacArthur/ISP  CLOUDY    43  41  93 W8        29.99S
Shirley        CLOUDY    44  42  93 W7        30.01S
Westhampton    LGT RAIN  45  42  89 SW8       30.01S FOG
Southampton      N/A     45  43  93 W3        29.97
Bridgehampton  NOT AVBL
East Hampton   LGT RAIN  44  42  93 S5        29.99F
Montauk          N/A     45  43  93 S6        30.02R
$$

NYZ052-065-067-051600-
HUDSON VALLEY

CITY           SKY/WX    TMP DP  RH WIND       PRES   REMARKS
White Plains   PTSUNNY   41  37  86 W7        29.98R
Newburgh       NOT AVBL
Montgomery     CLOUDY    33  31  92 CALM      29.97S
Poughkeepsie   CLOUDY    33  32  96 NW3       29.99R
Albany         FLURRIES  32  29  88 S9        29.93F WCI  24
$$

NJZ001-105-106-008-010-013-015-019>022-104-051600-
NEW JERSEY

CITY           SKY/WX    TMP DP  RH WIND       PRES   REMARKS
Newark/Liberty CLOUDY    43  40  89 SW12      30.02R
Teterboro      CLOUDY    43  38  82 SW12      30.00R FOG
Caldwell       CLOUDY    37  36  96 VRB5      30.01S FOG     WCI  33
Somerville     CLOUDY    37  34  89 CALM      30.01R FOG
Linden         CLOUDY    42  39  88 W10       30.01S
Sussex         CLOUDY    34  33  96 SW6       29.99R FOG     WCI  29
Andover          N/A     35  34  96 VRB5      29.99R WCI  31
Trenton        CLOUDY    42  39  89 W9        30.02R
Millville      CLOUDY    45  43  93 W10       30.03S
Atlantic City  CLOUDY    46  43  89 W7        30.03S
Wrightstown    NOT AVBL
Toms River     CLOUDY    45  43  93 W12       30.03R
Belmar         CLOUDY    43  41  93 W8        30.03R
$$

PAZ047>061-062-071-051600-
EASTERN PENNSYLVANIA

CITY           SKY/WX    TMP DP  RH WIND       PRES   REMARKS
Philadelphia   CLOUDY    44  40  85 W12       30.04R
Allentown      FOG       37  34  89 CALM      30.01R VSB 1
Scranton       CLOUDY    36  35  96 SW7       29.95F WCI  30
$$

CTZ002-004>006-009-010-012-RIZ004-006-007-MAZ004-011-015-051600-
SOUTHERN NEW ENGLAND
 IN CT

CITY           SKY/WX    TMP DP  RH WIND       PRES   REMARKS
Bradley INTL   LGT SNOW  30  27  88 CALM      30.00F FOG
Hartford       MIX PCPN  32  31  96 CALM      30.01F FOG
Danbury        NOT AVBL
Wtrbury/Oxford FOG       36  30  80 S5        29.98F VSB 1   WCI  32
Bridgeport     CLOUDY    44  38  79 N3        30.00S HAZE
Meriden        LGT RAIN  33  30  88 CALM      30.01F FOG
New Haven      CLOUDY    35  34  96 NE7       30.00F FOG     WCI  29
Chester        LGT RAIN  34  34 100 CALM      29.99F
Groton         LGT RAIN  39  37  92 N5        30.01S FOG
Wilimantic     LGT RAIN  34  32  92 CALM      30.01F FOG

 IN RI

CITY           SKY/WX    TMP DP  RH WIND       PRES   REMARKS
Providence     LGT RAIN  33  31  92 N3        30.03S FOG
Block Island   LGT RAIN  45  42  89 SW14      30.01S
Westerly       LGT RAIN  35  33  92 N5        30.02S FOG     WCI  31
 IN MA

CITY           SKY/WX    TMP DP  RH WIND       PRES   REMARKS
Boston         LGT SNOW  34  34 100 S7        30.04F FOG     WCI  28
Worcester      LGT SNOW  28  26  92 E5        29.97S VSB 1   WCI  23
Westfield      LGT SNOW  29  27  92 CALM      29.99F FOG
Provincetown   MIX PCPN  37  34  89 SE7       30.05F WCI  32
Nantucket      CLOUDY    42  33  70 SE12      30.04F
$$

ANZ330-335-338-340-345-350-353-355-051600-
COASTAL MARINE OBSERVATIONS


STATION/POSITION TIME  SKY/WX   TEMP    WIND        PRES    VSBY  WAVE
                                AIR SEA DIR/SP/G                  HT/PER
                 (UTC)          (F)     (DEG/KT/KT) (MB)    (MI)  (FT/S)
NY HARB ENTRANCE 1450            45 53  250/ 16/ 17 1015.8          3/ 5
20 S FIRE ISLAND 1350            47 54  220/ 14/ 16 1015.6          3/ 4
GREAT SOUTH BAY  1415            42 43                N/A
23 SSW MONTAUK P 1450            47 54  220/ 16/ 19 1016.0          3/ 4
15 E BARNEGAT LI 1430               55                N/A           3/ 5
HUDSON CANYON    1450            51 58              1015.8          2/ 4
KINGS POINT      1436            43 47              1015.8
EXECUTION ROCKS  1445            45     220/ 14/ 16   N/A
CENTRAL LI SOUND 1445            44 50  210/ 12/ 16   N/A           1/ 2
EASTERN LI SOUND NOT AVBL
ROBBINS REEF     1436            42     250/ 13/ 17 1016.2
$$


>>>>>>>>>>>>>>>>>>>>>>>>>>>> KEY <<<<<<<<<<<<<<<<<<<<<<<<<<<
>                                                          <
>     SKY/WX - Sky Condition/Present Weather               <
>     TMP    - Temperature in Fahrenheit                   <
>     DP     - Dew Point in Fahrenheit                     <
>     RH     - Relative Humidity in Percent                <
>     WIND   - Direction (from) and Speed in MPH           <
>     PRES   - Mean Sea Level Pressure (inches of Hg)      <
>     WCI    - Wind Chill Index                            <
>     VSB    - VISIBILITY IN MILES                         <
>     HX     - HEAT INDEX                                  <
>     TC     - TEMPERATURE IN CELSIUS                      <
>     VRB    - VARIABLE WIND DIRECTION                     <
>                                                          <
>>>>>>>>>>>>>>>>>>>>>>>>>>>> KEY <<<<<<<<<<<<<<<<<<<<<<<<<<<




USA.gov is the U.S. government's official web portal to all federal, state and local government web resources and services.